Regional Weather Roundup
Issued by NWS

Home | Current Version | Previous Version | Graphics & Text | Print | Product List | Glossary On
Versions: 1 2 3 4 5 6 7 8 9 10 11 12 13 14 15 16 17 18 19 20 21 22 23 24 25 26 27 28
000
ASUS45 KCYS 252010
RWRWY

WYOMING REGIONAL WEATHER ROUNDUP
NATIONAL WEATHER SERVICE CHEYENNE WY
200 PM MDT SAT MAR 25 2017

NOTE:  "FAIR" INDICATES FEW OR NO CLOUDS BELOW 12,000 FEET
WITH NO SIGNIFICANT WEATHER AND/OR OBSTRUCTIONS TO VISIBILITY.

WYZ001-252100-
YELLOWSTONE NATIONAL PARK

CITY           SKY/WX    TMP DP  RH WIND       PRES   REMARKS
LK YELLOWSTONE   N/A     37  24  59 MISG      29.97F
W YELLOWSTONE  NOT AVBL

$$
WYZ002>013-054>058-071-098>099-252100-
NORTHERN WYOMING

CITY           SKY/WX    TMP DP  RH WIND       PRES   REMARKS
JACKSON        PTSUNNY   39  32  75 S6        29.97F WCI  35
CODY           PTSUNNY   49  29  46 N14       29.94F
GREYBULL       LGT RAIN  53  35  50 E8        29.90F
WORLAND        PTSUNNY   53  37  54 NE3       29.89F
SHERIDAN       CLOUDY    48  40  73 NW12      29.96F
BUFFALO        CLOUDY    53  34  48 NW14G23   29.95F
GILLETTE         N/A     57  33  40 N13       29.90F
HULETT         FAIR      59  32  36 N9        29.90F
NEWCASTLE      FAIR      61  28  29 SW5       29.87F

$$
WYZ014>020-022>026-101>103-252100-
CENTRAL WYOMING

CITY           SKY/WX    TMP DP  RH WIND       PRES   REMARKS
BIG PINEY      LGT RAIN  37  35  92 CALM      29.97F FOG
PINEDALE       RAIN      36  36 100 S9        29.97F WCI  29
DUBOIS         CLOUDY    41  28  60 N6        29.92F
LANDER         LGT RAIN  50  32  50 SE5       29.89F
RIVERTON       LGT RAIN  51  33  50 NE8       29.90F
CASPER         FAIR      55  31  39 N9        29.90F
DOUGLAS        FAIR      59  28  30 W9        29.90F

$$
WYZ021-027>030-104>119-252100-
SOUTHERN WYOMING

CITY           SKY/WX    TMP DP  RH WIND       PRES   REMARKS
EVANSTON       LGT RAIN  38  33  82 W5        29.96F WCI  34
KEMMERER       LGT SNOW  36  32  87 CALM      29.97F
FORT BRIDGER   MOCLDY    44  34  66 NW8       29.98F
ROCK SPRINGS   FAIR      51  31  46 NW8       29.92F
DIXON            N/A     57  23  26 SW8       29.95F
RAWLINS        PTSUNNY   54  21  27 W16       29.94F
SARATOGA       FAIR      54  19  26 SW3       29.95F
LARAMIE        FAIR      55  13  18 VRB3      29.94F
CHEYENNE       FAIR      58  23  26 SW9       29.94F
TORRINGTON     FAIR      63  23  21 SW6       29.87F
PINE BLUFFS    FAIR      61  25  25 S13G20    29.94F

$$




USA.gov is the U.S. government's official web portal to all federal, state and local government web resources and services.